View from above orbital plane
|
View from above satellite
|
Ground track
|
The orbit data is extracted from the following two-line orbital elements,
1 10513U 77116B 21018.68591830 -.00000048 00000-0 32765-4 0 9994
2 10513 65.8336 107.1965 0017600 123.6003 27.3727 13.78561718168719
Epoch (UTC): | 18 January 2021 16:27:43 |
Eccentricity: | 0.0017600 |
inclination: | 65.8336° |
perigee height: | 956 km |
apogee height: | 982 km |
right ascension of ascending node: | 107.1965° |
argument of perigee: | 123.6003° |
revolutions per day: | 13.78561718 |
mean anomaly at epoch: | 27.3727° |
orbit number at epoch: | 16871 |
The dashed part of the orbit path shows where the satellite is in the earth's shadow,
|
|